| time (UTC) | temp F | wind direction | speed knots | gust knots | rain 1hr in | rain 24hr in | rain mn in | humidity % | barometer mb |
| 20260503060115 | 35 | 0 | 0.0 | 0.0 | 0.00 | 0.00 | 0.00 | 87 | 1018.7 |
| 20260503054556 | 35 | 0 | 0.0 | 0.0 | 0.00 | 0.00 | 0.00 | 86 | 1018.8 |
| 20260503053058 | 35 | 0 | 0.0 | 0.0 | 0.00 | 0.00 | 0.00 | 86 | 1018.9 |
| 20260503051601 | 36 | 0 | 0.0 | 0.0 | 0.00 | 0.00 | 0.00 | 86 | 1018.6 |
| 20260503050059 | 36 | 0 | 0.0 | 0.0 | 0.00 | 0.00 | 0.00 | 85 | 1018.7 |
| 20260503044625 | 37 | 0 | 0.0 | 0.0 | 0.00 | 0.00 | 0.00 | 85 | 1018.6 |
| 20260503043058 | 37 | 0 | 0.0 | 0.0 | 0.00 | 0.00 | 0.00 | 84 | 1018.4 |
| 20260503041559 | 38 | 0 | 0.0 | 0.0 | 0.00 | 0.00 | 0.00 | 83 | 1018.4 |
| 20260503040105 | 39 | 0 | 0.0 | 0.0 | 0.00 | 0.00 | 0.00 | 83 | 1018.2 |
| 20260503034602 | 39 | 0 | 0.0 | 0.0 | 0.00 | 0.00 | 0.00 | 82 | 1018.2 |
| 20260503033109 | 40 | 0 | 0.0 | 0.0 | 0.00 | 0.00 | 0.00 | 81 | 1018.0 |
| 20260503031557 | 41 | 0 | 0.0 | 0.9 | 0.00 | 0.00 | 0.00 | 80 | 1017.9 |
| 20260503030109 | 41 | 0 | 0.0 | 0.0 | 0.00 | 0.00 | 0.00 | 79 | 1017.9 |
| 20260503024602 | 42 | 0 | 0.0 | 0.0 | 0.00 | 0.00 | 0.00 | 77 | 1017.8 |
| 20260503023101 | 43 | 0 | 0.0 | 0.0 | 0.00 | 0.00 | 0.00 | 76 | 1017.7 |
| 20260503021603 | 44 | 0 | 0.0 | 0.0 | 0.00 | 0.00 | 0.00 | 75 | 1017.5 |
| 20260503020108 | 45 | 0 | 0.0 | 0.0 | 0.00 | 0.00 | 0.00 | 73 | 1017.4 |
| 20260503014606 | 46 | 178 | 0.0 | 0.9 | 0.00 | 0.00 | 0.00 | 71 | 1017.2 |
| 20260503013117 | 48 | 0 | 0.0 | 0.0 | 0.00 | 0.00 | 0.00 | 69 | 1016.9 |
| 20260503011558 | 49 | 0 | 0.0 | 0.0 | 0.00 | 0.00 | 0.00 | 68 | 1016.7 |
| 20260503010058 | 50 | 0 | 0.0 | 0.0 | 0.00 | 0.00 | 0.00 | 65 | 1016.5 |
| 20260503004604 | 50 | 172 | 0.0 | 0.0 | 0.00 | 0.00 | 0.00 | 62 | 1016.2 |
| 20260503003103 | 51 | 0 | 0.0 | 0.9 | 0.00 | 0.00 | 0.00 | 61 | 1016.1 |
| 20260503001559 | 52 | 0 | 0.0 | 1.7 | 0.00 | 0.00 | 0.00 | 60 | 1016.0 |
| 20260503000105 | 53 | 152 | 0.0 | 1.7 | 0.00 | 0.00 | 0.00 | 56 | 1015.9 |
| 20260502234617 | 53 | 0 | 0.0 | 3.5 | 0.00 | 0.00 | 0.00 | 55 | 1015.8 |
| 20260502233059 | 54 | 0 | 0.9 | 2.6 | 0.00 | 0.00 | 0.00 | 48 | 1015.7 |
| 20260502231558 | 55 | 0 | 0.0 | 1.7 | 0.00 | 0.00 | 0.00 | 49 | 1015.4 |
| 20260502230059 | 55 | 0 | 0.0 | 2.6 | 0.00 | 0.00 | 0.00 | 46 | 1015.5 |
| 20260502224604 | 55 | 263 | 0.9 | 4.3 | 0.00 | 0.00 | 0.00 | 44 | 1015.4 |
| 20260502223105 | 56 | 178 | 0.9 | 6.1 | 0.00 | 0.00 | 0.00 | 45 | 1015.3 |
| 20260502221603 | 56 | 188 | 0.9 | 4.3 | 0.00 | 0.00 | 0.00 | 44 | 1015.3 |
| 20260502220104 | 57 | 194 | 1.7 | 6.1 | 0.00 | 0.00 | 0.00 | 42 | 1015.2 |
| 20260502214615 | 57 | 325 | 0.9 | 9.6 | 0.00 | 0.00 | 0.00 | 41 | 1015.0 |
| 20260502213121 | 57 | 201 | 0.9 | 3.5 | 0.00 | 0.00 | 0.00 | 45 | 1015.0 |
| 20260502211601 | 57 | 360 | 1.7 | 7.0 | 0.00 | 0.00 | 0.00 | 42 | 1015.0 |
| 20260502210100 | 58 | 360 | 2.6 | 12.2 | 0.00 | 0.00 | 0.00 | 40 | 1015.1 |
| 20260502204559 | 57 | 360 | 0.9 | 6.1 | 0.00 | 0.00 | 0.00 | 44 | 1015.0 |
| 20260502203116 | 57 | 360 | 2.6 | 7.8 | 0.00 | 0.00 | 0.00 | 40 | 1015.2 |
| 20260502201558 | 57 | 360 | 0.0 | 4.3 | 0.00 | 0.00 | 0.00 | 45 | 1015.2 |
| 20260502200105 | 57 | 351 | 1.7 | 6.1 | 0.00 | 0.00 | 0.00 | 44 | 1015.4 |
| 20260502194558 | 56 | 229 | 0.9 | 10.4 | 0.00 | 0.00 | 0.00 | 44 | 1015.3 |
| 20260502193059 | 58 | 360 | 0.9 | 7.0 | 0.00 | 0.00 | 0.00 | 43 | 1015.3 |
| 20260502191603 | 57 | 360 | 0.9 | 4.3 | 0.00 | 0.00 | 0.00 | 42 | 1015.6 |
| 20260502190059 | 58 | 360 | 1.7 | 7.8 | 0.00 | 0.00 | 0.00 | 42 | 1015.6 |
| 20260502184559 | 55 | 0 | 0.9 | 3.5 | 0.00 | 0.00 | 0.00 | 46 | 1016.0 |
| 20260502183108 | 55 | 0 | 0.9 | 7.0 | 0.00 | 0.00 | 0.00 | 44 | 1016.1 |
| 20260502181601 | 55 | 208 | 1.7 | 6.1 | 0.00 | 0.00 | 0.00 | 44 | 1016.1 |
| 20260502163110 | 56 | 207 | 1.7 | 7.8 | 0.00 | 0.00 | 0.00 | 46 | 1016.5 |
| 20260502161620 | 56 | 360 | 1.7 | 11.3 | 0.00 | 0.00 | 0.00 | 47 | 1016.7 |
| 20260502151558 | 55 | 360 | 1.7 | 7.8 | 0.00 | 0.00 | 0.00 | 54 | 1017.0 |
| 20260502130107 | 42 | 0 | 0.0 | 0.0 | 0.00 | 0.00 | 0.00 | 93 | 1017.3 |
| 20260502123117 | 38 | 0 | 0.0 | 0.0 | 0.00 | 0.00 | 0.00 | 92 | 1017.3 |
| 20260502121607 | 37 | 0 | 0.0 | 0.0 | 0.00 | 0.00 | 0.00 | 91 | 1017.2 |
| 20260502120120 | 36 | 0 | 0.0 | 0.0 | 0.00 | 0.00 | 0.00 | 91 | 1017.1 |
| 20260502114608 | 35 | 0 | 0.0 | 0.0 | 0.00 | 0.00 | 0.00 | 91 | 1017.0 |
| 20260502113133 | 35 | 0 | 0.0 | 0.0 | 0.00 | 0.00 | 0.00 | 91 | 1016.9 |
| 20260502111558 | 35 | 0 | 0.0 | 0.0 | 0.00 | 0.00 | 0.00 | 91 | 1016.9 |
| 20260502110058 | 34 | 0 | 0.0 | 0.0 | 0.00 | 0.00 | 0.00 | 90 | 1016.7 |
| 20260502104559 | 34 | 0 | 0.0 | 0.0 | 0.00 | 0.00 | 0.00 | 90 | 1016.5 |
| 20260502103058 | 34 | 0 | 0.0 | 0.0 | 0.00 | 0.00 | 0.00 | 90 | 1016.6 |
| 20260502101604 | 35 | 0 | 0.0 | 0.0 | 0.00 | 0.00 | 0.00 | 90 | 1016.7 |
| 20260502100106 | 35 | 0 | 0.0 | 0.0 | 0.00 | 0.00 | 0.00 | 90 | 1017.0 |
| 20260502090105 | 35 | 0 | 0.0 | 0.0 | 0.00 | 0.00 | 0.00 | 90 | 1017.1 |
| 20260502070113 | 37 | 0 | 0.0 | 0.0 | 0.00 | 0.00 | 0.00 | 88 | 1016.7 |